User: anonymous   Login
Location: Prairie State College
(41.5244°N, 87.6382°W)
Time: 19:38:26
(UTC-06:00)
Language:

MSX - Orbit

View from above orbital plane
View from above orbital plane
View from above satellite
View from above satellite

Ground track
Ground track

The orbit data is extracted from the following two-line orbital elements,

1 23851U 96024A   14322.76687314 0.00000150  00000-0  10578-3 0    07
2 23851  98.7526   1.7521 0008000  66.1350 293.8649 13.97992749    04
Epoch (UTC): 18 November 2014 18:24:17
Eccentricity: 0.0008000
inclination: 98.7526°
perigee height: 895 km
apogee height: 906 km
right ascension of ascending node: 1.7521°
argument of perigee: 66.1350°
revolutions per day: 13.97992749
mean anomaly at epoch: 293.8649°
orbit number at epoch: 0

The dashed part of the orbit path shows where the satellite is in the earth's shadow,  

DLR